Weather History for Martinsburg, WV

Change the Weather History Date:

Saturday, March 16, 2013

  Actual Average Record
Temperature  
Mean Temperature 44 °F 42 °F  
Max Temperature 51 °F 53 °F 84 °F (1945)
Min Temperature 36 °F 31 °F 10 °F (1993)
Degree Days  
Heating Degree Days 21 23  
Month to date heating degree days 389 410  
Since 1 July heating degree days 4024 4366  
Cooling Degree Days 0 0  
Month to date cooling degree days 0 0  
Year to date cooling degree days 0 0  
Moisture  
Dew Point 32 °F    
Average Humidity 69    
Maximum Humidity 85    
Minimum Humidity 53    
Precipitation  
Precipitation T in 0.12 in 1.15 in (1982)
Month to date precipitation 0.97 1.68  
Year to date precipitation 5.79 6.46  
Sea Level Pressure  
Sea Level Pressure 29.78 in    
Wind  
Wind Speed 7 mph (NNE)    
Max Wind Speed 17 mph    
Max Gust Speed 25 mph    
Visibility 8 miles    
Events Rain    
T = Trace of Precipitation, MM = Missing Value Source: NWS Daily Summary

Daily Weather History Graph

Daily Weather History Graph

Search for Another Location

Airport:

Trip Planner

Search our weather history database for the weather conditions in past years. The results will help you decide how hot, cold, wet, or windy it might be!

Date:

Astronomy

Mar. 16, 2013 Rise Set
Actual Time 7:21 AM EDT 7:20 PM EDT
Civil Twilight 6:54 AM EDT 7:46 PM EDT
Nautical Twilight 6:23 AM EDT 8:18 PM EDT
Astronomical Twilight 5:51 AM EDT 8:49 PM EDT
Moon 9:51 AM EDT (3/16) No Moon Set
Length of Visible Light 12h 52m
Length of Day
11h 58m
Waxing Crescent, 23% of the Moon is Illuminated
Mar 16
Waxing Crescent
Mar 19
First Quarter
Mar 27
Full
Apr 3
Last Quarter
Apr 10
New

Hourly Weather History & Observations

Time (EDT) Temp. Windchill Dew Point Humidity Pressure Visibility Wind Dir Wind Speed Gust Speed Precip Events Conditions
12:53 AM 44.1 °F 40.8 °F 30.9 °F 60% 29.80 in 10.0 mi West 5.8 mph - N/A   Clear
1:53 AM 48.9 °F - 32.0 °F 52% 29.80 in 10.0 mi West 8.1 mph - N/A   Clear
2:53 AM 46.9 °F - 30.9 °F 54% 29.81 in 10.0 mi NNE 6.9 mph - N/A   Overcast
3:53 AM 45.0 °F 42.6 °F 30.9 °F 58% 29.80 in 10.0 mi NE 4.6 mph - N/A   Overcast
4:53 AM 44.1 °F 42.5 °F 32.0 °F 63% 29.77 in 10.0 mi NE 3.5 mph - N/A   Overcast
5:53 AM 44.1 °F 41.5 °F 32.0 °F 63% 29.78 in 10.0 mi NNE 4.6 mph - N/A   Overcast
6:53 AM 44.1 °F - 32.0 °F 63% 29.79 in 9.0 mi Calm Calm - N/A   Overcast
7:53 AM 43.0 °F 40.3 °F 33.1 °F 68% 29.81 in 8.0 mi NW 4.6 mph - N/A   Overcast
8:53 AM 43.0 °F - 35.1 °F 74% 29.80 in 6.0 mi Calm Calm - N/A   Haze
9:53 AM 45.0 °F 41.8 °F 34.0 °F 65% 29.78 in 7.0 mi NNE 5.8 mph - 0.00 in   Overcast
10:53 AM 48.9 °F - 35.1 °F 59% 29.75 in 9.0 mi NNE 4.6 mph - N/A   Mostly Cloudy
11:53 AM 50.0 °F - 34.0 °F 54% 29.70 in 10.0 mi Variable 4.6 mph - 0.00 in Rain Light Rain
12:53 PM 48.9 °F - 34.0 °F 56% 29.70 in 10.0 mi ESE 3.5 mph - 0.00 in   Overcast
1:53 PM 46.9 °F - 36.0 °F 66% 29.67 in 10.0 mi North 11.5 mph - N/A   Overcast
2:53 PM 42.1 °F 34.9 °F 35.1 °F 76% 29.67 in 7.0 mi North 13.8 mph - N/A   Overcast
3:53 PM 39.0 °F 31.0 °F 33.1 °F 79% 29.69 in 6.0 mi North 13.8 mph - N/A   Haze
4:35 PM 37.4 °F 29.3 °F 33.8 °F 87% 29.70 in 4.0 mi North 12.7 mph - 0.00 in Rain Light Rain
4:53 PM 37.0 °F 27.7 °F 33.1 °F 86% 29.72 in 4.0 mi North 16.1 mph 20.7 mph 0.00 in   Overcast
5:01 PM 37.4 °F 30.3 °F 33.8 °F 87% 29.70 in 4.0 mi North 10.4 mph 20.7 mph N/A   Overcast
5:33 PM 37.4 °F 29.8 °F 32.0 °F 81% 29.72 in 6.0 mi North 11.5 mph - N/A   Haze
5:53 PM 37.9 °F 30.9 °F 32.0 °F 79% 29.74 in 6.0 mi North 10.4 mph - N/A   Haze
6:49 PM 37.4 °F 30.3 °F 30.2 °F 75% 29.76 in 9.0 mi NNE 10.4 mph - N/A   Overcast
6:53 PM 37.0 °F 31.0 °F 30.9 °F 79% 29.78 in 9.0 mi NNE 8.1 mph - N/A   Overcast
7:53 PM 37.0 °F 30.4 °F 30.9 °F 79% 29.82 in 10.0 mi NNE 9.2 mph - N/A   Overcast
8:53 PM 37.0 °F 31.0 °F 30.9 °F 79% 29.87 in 10.0 mi NNE 8.1 mph - N/A   Overcast
9:19 PM 37.4 °F 32.8 °F 30.2 °F 75% 29.87 in 9.0 mi NNE 5.8 mph - N/A   Overcast
9:53 PM 36.0 °F 29.6 °F 30.9 °F 82% 29.90 in 8.0 mi NNE 8.1 mph - N/A   Overcast
10:53 PM 36.0 °F 31.1 °F 30.9 °F 82% 29.93 in 7.0 mi North 5.8 mph - N/A   Overcast
11:53 PM 36.0 °F 31.1 °F 30.9 °F 82% 29.94 in 7.0 mi NNE 5.8 mph - N/A   Overcast